Time,TemperatureF,DewpointF,PressureIn,WindDirection,WindDirectionDegrees,WindSpeedMPH,WindSpeedGustMPH,Humidity,HourlyPrecipIn,Conditions,Clouds,dailyrainin,SoftwareType,DateUTC
2013-10-10 00:13:00,41.0,36.0,-100.00,South,171,9.0,10.0,81,-99.99,,,-99.99,,2013-10-10 06:13:00,
2013-10-10 00:42:00,43.0,36.0,-100.00,ESE,114,5.0,8.0,76,-99.99,,,-99.99,,2013-10-10 06:42:00,
2013-10-10 01:11:00,43.0,36.0,-100.00,SE,134,6.0,11.0,77,-99.99,,,-99.99,,2013-10-10 07:11:00,
2013-10-10 01:42:00,43.0,35.0,-100.00,SSE,148,8.0,11.0,75,-99.99,,,-99.99,,2013-10-10 07:42:00,
2013-10-10 02:22:00,41.0,35.0,-100.00,South,169,8.0,9.0,78,-99.99,,,-99.99,,2013-10-10 08:22:00,
2013-10-10 02:42:00,41.0,35.0,-100.00,SSE,154,11.0,12.0,76,-99.99,,,-99.99,,2013-10-10 08:42:00,
2013-10-10 03:21:00,43.0,35.0,-100.00,South,175,6.0,8.0,72,-99.99,,,-99.99,,2013-10-10 09:21:00,
2013-10-10 03:42:00,43.0,35.0,-100.00,SSE,148,7.0,7.0,73,-99.99,,,-99.99,,2013-10-10 09:42:00,
2013-10-10 04:42:00,43.0,38.0,-100.00,SE,138,2.0,5.0,82,-99.99,,,-99.99,,2013-10-10 10:42:00,
2013-10-10 05:42:00,41.0,38.0,-100.00,SSE,165,2.0,6.0,89,-99.99,,,-99.99,,2013-10-10 11:42:00,
2013-10-10 06:11:00,41.0,39.0,-100.00,SSE,160,3.0,4.0,90,-99.99,,,-99.99,,2013-10-10 12:11:00,
2013-10-10 06:21:00,41.0,39.0,-100.00,SSE,157,3.0,3.0,90,-99.99,,,-99.99,,2013-10-10 12:21:00,
2013-10-10 06:41:00,42.0,39.0,-100.00,West,260,1.0,4.0,90,-99.99,,,-99.99,,2013-10-10 12:41:00,
2013-10-10 06:51:00,41.0,39.0,-100.00,SSW,212,1.0,3.0,90,-99.99,,,-99.99,,2013-10-10 12:51:00,
2013-10-10 07:21:00,41.0,39.0,-100.00,SE,143,3.0,4.0,91,-99.99,,,-99.99,,2013-10-10 13:21:00,
2013-10-10 07:41:00,41.0,39.0,-100.00,NW,314,2.0,5.0,90,-99.99,,,-99.99,,2013-10-10 13:41:00,
2013-10-10 08:11:00,41.0,38.0,-100.00,SW,216,2.0,10.0,87,-99.99,,,-99.99,,2013-10-10 14:11:00,
2013-10-10 08:42:00,40.0,38.0,-100.00,West,271,1.0,6.0,89,-99.99,,,-99.99,,2013-10-10 14:42:00,
2013-10-10 09:22:00,42.0,38.0,-100.00,South,177,2.0,9.0,87,-99.99,,,-99.99,,2013-10-10 15:22:00,
2013-10-10 09:43:00,43.0,39.0,-100.00,NW,316,4.0,8.0,85,-99.99,,,-99.99,,2013-10-10 15:43:00,
2013-10-10 10:13:00,43.0,39.0,-100.00,WNW,301,6.0,12.0,87,-99.99,,,-99.99,,2013-10-10 16:13:00,
2013-10-10 10:23:00,43.0,39.0,-100.00,WNW,301,7.0,11.0,85,-99.99,,,-99.99,,2013-10-10 16:23:00,
2013-10-10 10:42:00,43.0,39.0,-100.00,WNW,291,5.0,11.0,87,-99.99,,,-99.99,,2013-10-10 16:42:00,
2013-10-10 12:12:00,43.0,39.0,-100.00,North,354,5.0,9.0,86,-99.99,,,-99.99,,2013-10-10 18:12:00,
2013-10-10 12:21:00,43.0,40.0,-100.00,NNW,346,5.0,9.0,89,-99.99,,,-99.99,,2013-10-10 18:21:00,
2013-10-10 13:11:00,43.0,39.0,-100.00,NW,323,7.0,12.0,83,-99.99,,,-99.99,,2013-10-10 19:11:00,
2013-10-10 13:21:00,42.0,39.0,-100.00,NW,321,9.0,13.0,87,-99.99,,,-99.99,,2013-10-10 19:21:00,
2013-10-10 13:42:00,42.0,39.0,-100.00,NW,321,9.0,12.0,90,-99.99,,,-99.99,,2013-10-10 19:42:00,
2013-10-10 14:22:00,41.0,39.0,-100.00,NNW,334,5.0,11.0,92,-99.99,,,-99.99,,2013-10-10 20:22:00,
2013-10-10 14:42:00,41.0,39.0,-100.00,NW,313,10.0,13.0,90,-99.99,,,-99.99,,2013-10-10 20:42:00,
2013-10-10 15:21:00,42.0,39.0,-100.00,NW,314,9.0,13.0,90,-99.99,,,-99.99,,2013-10-10 21:21:00,
2013-10-10 15:43:00,43.0,41.0,-100.00,NW,315,10.0,17.0,91,-99.99,,,-99.99,,2013-10-10 21:43:00,
2013-10-10 16:43:00,42.0,39.0,-100.00,NW,308,12.0,14.0,89,-99.99,,,-99.99,,2013-10-10 22:43:00,
2013-10-10 17:12:00,40.0,38.0,-100.00,NW,326,9.0,14.0,90,-99.99,,,-99.99,,2013-10-10 23:12:00,
2013-10-10 17:43:00,40.0,36.0,-100.00,NW,306,9.0,14.0,87,-99.99,,,-99.99,,2013-10-10 23:43:00,
2013-10-10 18:11:00,41.0,37.0,-100.00,NW,317,6.0,11.0,87,-99.99,,,-99.99,,2013-10-11 00:11:00,
2013-10-10 18:21:00,41.0,37.0,-100.00,NW,317,6.0,11.0,87,-99.99,,,-99.99,,2013-10-11 00:21:00,
2013-10-10 18:42:00,40.0,37.0,-100.00,WNW,299,7.0,11.0,87,-99.99,,,-99.99,,2013-10-11 00:42:00,
2013-10-10 19:11:00,40.0,37.0,-100.00,NW,319,4.0,12.0,89,-99.99,,,-99.99,,2013-10-11 01:11:00,
2013-10-10 19:21:00,40.0,36.0,-100.00,NW,316,5.0,10.0,88,-99.99,,,-99.99,,2013-10-11 01:21:00,
2013-10-10 19:30:00,38.0,36.0,-100.00,NNW,340,4.0,6.0,92,-99.99,,,-99.99,,2013-10-11 01:30:00,
2013-10-10 19:32:00,40.0,36.0,-100.00,NW,316,5.0,10.0,88,-99.99,,,-99.99,,2013-10-11 01:32:00,
2013-10-10 19:42:00,40.0,36.0,-100.00,NW,316,5.0,10.0,88,-99.99,,,-99.99,,2013-10-11 01:42:00,
2013-10-10 20:12:00,38.0,36.0,-100.00,NNW,340,4.0,6.0,92,-99.99,,,-99.99,,2013-10-11 02:12:00,
2013-10-10 20:22:00,38.0,36.0,-100.00,NNW,340,4.0,6.0,92,-99.99,,,-99.99,,2013-10-11 02:22:00,